Location: Castelnau
(43.6639°N, 0.8431°W)
Time: 16:43:01
(UTC+00:00)

BREEZE-M DEB (TANK) - Pass Details

Date: 13 January 2026
Orbit: 321 x 14415 km, 49.6° (Epoch: 11 February)

Event Time Altitude Azimuth Distance (km) Brightness Sun altitude
Exits shadow 05:07:35 55° 170° (S) 799 3.8 -26.1°
Drops below altitude 10° 05:14:03 10° 130° (SE) 3,686 7.9 -24.9°
Sets 05:19:47 0° 128° (SE) 6,219 9.3 -23.9°
